Theta_e
344 345 344 346 347 344 343 342 339 339 342 346 345 345 345 346 347 344 343 345 345 344 346 346 345 349 348 349 346 348 347 349 349 346 344 347 346 347 348 347 348 345 347
340 342 344 343 343 342 342 343 342 340 340 346 345 345 345 344 346 345 346 347 348 348 343 348 345 346 347 346 347 347 345 348 348 347 345 346 347 347 347 348 348 347 345
345 341 341 344 342 339 339 340 342 341 337 342 343 344 345 344 342 343 345 344 345 344 345 344 343 348 345 348 348 348 347 347 349 348 347 347 348 347 347 347 347 347 347
343 341 339 339 343 340 340 341 341 341 341 336 341 344 345 346 345 344 345 345 346 349 348 348 347 349 347 347 348 348 348 346 345 345 346 346 345 345 345 346 347 347 347
345 343 338 340 344 344 342 341 342 341 342 339 340 342 344 344 344 342 343 346 344 345 344 346 344 346 345 346 348 348 348 347 345 344 345 343 344 344 344 345 346 344 344
343 342 339 339 340 340 342 342 343 344 345 343 341 341 342 343 343 342 343 343 342 345 345 344 346 345 344 346 348 346 345 347 346 345 343 342 343 343 344 345 344 343 343
345 344 341 342 343 342 343 343 342 345 348 349 346 345 346 345 345 347 345 346 345 345 345 344 347 348 347 347 345 345 344 345 345 345 344 343 343 343 343 343 343 342 342
344 345 345 345 344 342 340 340 341 345 345 347 347 346 349 349 347 348 348 347 346 346 346 348 346 346 345 344 344 345 344 346 344 344 344 343 342 342 340 340 340 342 341
344 342 342 345 346 343 342 341 342 342 345 346 347 347 346 346 343 347 349 350 349 348 343 345 347 345 347 348 347 347 344 345 345 345 344 343 341 340 339 339 339 339 339
344 345 345 343 342 342 344 345 341 340 340 343 344 340 340 347 347 348 348 347 346 347 345 344 344 349 349 347 347 349 347 345 344 345 344 342 340 338 337 337 337 336 335
343 344 344 343 343 342 339 339 342 343 345 345 345 342 343 345 346 347 346 346 346 346 346 346 344 343 345 348 347 346 347 345 344 345 344 341 337 335 334 335 336 335 332
338 340 341 342 341 341 339 335 341 342 342 343 342 339 338 342 344 344 345 345 346 347 345 347 347 346 346 345 345 347 347 346 346 345 341 339 333 330 331 333 333 334 333
339 339 339 338 340 338 337 334 334 335 337 338 337 339 342 343 343 344 344 345 345 346 345 346 343 345 346 346 347 347 342 343 343 344 341 336 331 327 325 326 326 328 329
326 335 336 335 337 336 333 334 334 335 337 338 338 337 337 337 336 338 338 338 340 343 344 345 345 346 347 347 347 346 342 344 344 344 337 327 323 320 319 318 318 317 316
328 329 334 335 336 332 332 331 332 333 333 334 334 334 334 335 335 336 336 336 338 340 341 342 343 344 347 347 347 346 343 345 337 328 328 324 322 321 321 321 321 320 319
330 329 331 334 335 336 333 330 332 330 330 332 332 332 332 332 333 334 334 335 336 336 337 337 339 342 343 344 341 338 340 336 333 329 327 324 323 322 320 320 321 319 319
331 328 329 331 334 333 336 333 332 331 330 329 329 329 328 329 329 328 330 332 332 333 333 335 335 334 333 332 331 331 331 330 329 328 328 326 324 320 317 317 317 320 316
331 328 330 332 333 332 334 334 331 330 330 329 328 328 328 328 328 328 328 328 329 330 330 330 330 331 331 331 330 329 328 328 328 328 326 322 317 317 315 314 315 318 312
328 328 330 331 332 332 333 334 333 331 331 331 329 328 328 328 327 328 328 329 329 328 328 327 327 327 328 328 329 329 328 327 325 323 321 319 318 316 314 313 313 312 311
328 328 329 330 330 329 331 333 332 332 331 331 331 330 330 330 330 329 329 330 330 330 330 330 330 330 329 328 328 327 326 325 323 322 319 316 314 313 313 312 312 311 311
329 329 329 330 330 330 329 329 329 329 328 328 330 328 329 329 330 330 330 330 329 328 328 324 321 323 323 321 320 321 319 319 318 317 316 314 313 312 312 311 310 311 311
330 328 328 329 329 328 328 327 327 327 327 327 327 327 328 328 329 328 329 328 328 327 324 320 320 318 317 317 317 317 317 317 316 315 314 313 313 312 311 312 312 312 312
329 328 327 327 327 328 328 328 328 327 328 328 328 328 328 328 327 327 327 329 324 321 320 320 319 318 318 318 317 317 316 316 315 315 314 313 311 311 312 312 313 312 312
328 328 328 329 328 326 326 326 323 322 321 320 319 320 322 325 328 326 323 320 320 320 321 321 320 319 318 318 317 317 317 316 316 315 313 311 312 313 313 313 313 312 313
328 329 330 330 330 328 328 325 324 324 324 323 321 319 317 318 320 320 320 320 319 319 318 319 319 319 318 315 315 316 315 314 314 314 314 314 314 314 314 314 314 314 315
327 329 329 330 327 325 325 326 324 322 322 321 321 321 318 318 319 319 319 319 318 318 318 318 319 318 317 316 314 314 315 316 316 316 316 315 315 315 315 315 315 314 314
Wind_Speed
27 26 26 28 30 31 32 28 27 25 21 23 20 17 18 20 20 20 17 16 14 14 14 15 13 12 11 12 11 8 8 8 7 6 5 3 4 6 8 7 8 9 9
32 35 27 27 29 30 31 33 29 27 26 27 25 21 19 18 21 23 23 20 17 16 15 14 13 13 13 13 15 15 12 11 11 10 8 7 7 7 10 11 10 10 11
26 23 33 34 31 29 28 28 32 29 28 29 26 22 20 21 21 23 24 22 20 18 17 18 18 15 16 15 13 15 13 11 10 11 10 11 13 12 13 14 13 12 12
23 23 25 33 31 29 27 26 28 29 31 30 29 25 24 23 22 26 26 23 21 21 21 19 18 18 16 16 17 18 17 17 15 15 15 14 15 15 14 14 14 14 14
29 31 18 18 27 29 29 28 29 29 29 32 29 27 26 25 26 26 28 27 26 25 24 22 21 21 18 17 17 18 18 17 16 15 15 15 15 16 16 14 14 14 14
28 30 29 25 22 30 29 28 27 29 28 31 33 31 30 30 26 26 27 27 26 26 25 24 22 22 20 20 19 18 17 19 18 17 18 18 16 16 16 15 14 16 17
20 20 23 29 25 21 24 28 34 32 28 28 28 28 27 26 26 26 26 28 28 28 27 26 24 23 22 22 19 17 19 21 21 20 19 18 17 16 15 16 15 15 14
13 14 15 17 17 25 24 23 29 33 35 31 30 32 31 32 29 27 25 27 29 30 29 26 26 25 23 22 20 19 18 18 17 18 18 17 17 16 16 14 12 13 16
4 5 10 10 11 15 23 27 30 34 31 29 29 33 33 33 32 31 28 31 31 30 30 30 29 30 29 27 25 22 21 20 19 20 19 18 16 16 15 14 13 13 14
8 7 5 5 7 12 13 17 21 26 27 30 31 31 30 30 28 33 34 32 33 35 33 32 33 34 30 31 30 28 25 24 23 23 22 19 16 14 13 12 11 9 9
10 9 8 8 8 9 11 13 19 21 21 23 25 29 30 30 28 31 34 35 37 39 38 36 35 34 37 36 34 33 29 25 27 25 22 18 16 14 14 14 13 11 8
10 11 12 12 12 13 12 12 11 15 17 16 19 21 41 38 38 33 34 35 34 34 37 38 38 37 38 36 35 32 28 24 28 28 25 19 18 15 15 14 13 14 12
8 8 7 7 7 8 10 11 12 13 13 14 14 16 21 28 29 33 31 29 29 32 37 39 39 39 39 36 36 33 29 34 37 35 31 26 20 15 14 13 12 12 12
7 8 9 8 9 7 7 7 8 9 10 11 14 17 18 20 23 24 26 26 25 27 25 24 27 30 34 34 35 39 40 41 46 41 34 26 22 20 16 13 15 14 11
6 5 9 10 8 4 2 0 1 3 4 3 2 2 4 7 12 17 22 23 21 22 22 22 19 20 23 31 36 33 39 43 37 28 30 30 22 17 17 15 12 11 7
8 8 11 11 8 6 4 2 2 2 3 4 5 6 8 9 10 8 4 8 11 14 15 14 16 18 22 29 27 25 27 29 28 27 23 19 18 16 12 14 13 10 10
9 8 9 11 12 9 5 6 5 4 3 4 5 7 9 10 12 15 16 14 12 7 3 6 11 12 13 13 13 16 17 18 17 19 18 15 14 13 14 13 14 14 12
11 9 9 9 12 11 9 8 8 8 6 6 5 4 4 6 8 10 11 11 12 14 15 15 16 15 15 15 16 14 13 11 13 13 13 12 13 12 12 11 14 17 13
10 8 8 10 14 12 11 9 10 10 9 9 8 8 7 5 4 4 4 3 2 4 8 10 10 10 9 8 8 9 10 11 11 12 13 13 14 13 11 11 13 13 15
8 7 8 9 10 10 10 11 11 11 12 12 11 10 11 13 11 10 10 7 5 6 6 5 5 6 6 7 7 7 8 11 11 11 11 13 13 12 12 12 14 15 14
6 4 6 9 10 9 10 12 12 12 14 12 11 11 11 12 12 11 11 10 8 6 5 2 2 4 6 7 8 10 9 9 11 12 13 13 13 16 11 12 14 16 16
8 5 5 6 7 10 11 11 11 12 12 13 15 15 15 15 14 11 10 12 13 11 7 4 4 5 5 3 6 9 8 12 14 13 12 14 14 15 15 14 13 16 15
11 9 6 5 4 5 5 5 6 7 7 8 8 9 11 14 14 13 13 14 12 9 9 8 9 9 8 7 8 10 9 11 13 12 11 14 15 15 15 15 14 16 18
15 12 8 5 3 2 3 3 2 2 2 1 2 3 5 7 9 9 12 13 10 9 9 10 11 11 11 10 11 12 10 9 12 12 11 13 16 14 13 14 14 15 17
17 15 12 10 8 7 8 9 7 6 6 5 3 3 4 4 9 13 13 10 9 9 8 7 9 9 9 8 11 14 14 14 14 15 16 16 17 16 16 15 15 15 18
18 17 15 13 13 14 14 16 15 12 10 9 8 7 5 7 10 12 13 11 10 10 12 9 9 11 12 9 10 17 18 16 14 14 16 19 21 21 19 18 19 19 19
Wind_Direction
237 238 241 245 242 245 238 241 242 243 249 241 246 258 256 256 258 248 240 236 248 254 260 264 260 256 247 236 241 262 258 260 266 265 261 261 259 264 235 257 264 264 261
252 249 235 253 244 241 240 241 244 241 242 239 245 248 248 257 247 246 242 241 247 256 269 266 265 261 253 246 245 254 263 264 258 261 270 256 258 258 250 256 268 262 259
244 240 240 244 241 238 238 243 241 244 243 242 243 241 244 248 251 247 245 248 253 259 264 263 260 256 251 248 247 252 259 266 254 258 261 259 262 263 260 258 263 257 256
224 229 253 243 241 240 240 245 246 244 248 243 241 242 245 249 263 247 251 249 253 256 264 265 253 252 254 246 253 256 260 266 264 258 259 261 262 263 258 257 259 262 263
238 248 256 241 233 239 241 242 247 245 243 245 247 249 254 250 254 253 249 251 258 259 262 265 256 256 254 249 258 259 259 258 260 256 257 258 258 258 259 260 250 262 259
236 250 254 246 258 244 237 237 244 248 247 245 246 250 253 255 256 252 252 254 256 257 258 257 259 259 254 253 257 253 253 252 255 260 265 266 268 265 266 262 254 251 250
244 251 248 259 262 237 237 239 241 243 244 246 248 250 251 252 251 253 254 255 254 256 257 254 252 257 262 261 262 256 256 251 255 257 258 265 267 265 260 257 256 261 257
242 250 251 265 256 251 233 241 245 239 239 242 247 254 259 256 256 254 255 257 259 258 257 258 251 251 259 263 266 268 262 250 253 252 257 264 270 265 259 257 255 248 243
240 260 254 270 263 251 244 250 257 240 235 243 248 256 261 261 258 256 255 256 257 258 254 251 247 250 253 256 259 264 262 257 255 255 258 266 265 257 254 244 236 231 239
258 263 251 260 257 252 248 250 245 234 248 253 265 253 261 260 258 255 254 256 256 258 257 254 252 251 254 251 252 255 261 262 257 253 256 262 253 239 231 218 202 213 215
244 252 260 272 280 286 276 264 251 256 263 263 259 257 263 260 261 264 263 264 263 261 259 258 255 256 255 254 253 251 258 263 252 247 250 254 230 219 214 205 203 203 205
244 251 264 274 275 274 273 269 266 254 256 264 265 255 257 266 264 271 270 268 265 261 260 259 258 256 257 257 253 252 258 254 248 239 230 229 213 207 202 199 197 196 199
237 236 244 269 291 279 263 259 259 255 250 252 251 246 240 243 252 260 267 266 263 259 257 256 256 258 256 253 254 246 245 253 242 225 219 209 200 199 192 189 188 185 197
262 226 241 261 286 292 284 266 253 248 245 245 250 249 253 259 264 262 264 264 264 259 261 262 261 261 251 249 252 253 239 244 230 220 204 185 170 162 159 160 162 158 169
349 270 234 248 279 308 286 239 161 124 112 115 163 241 269 272 271 268 263 263 265 258 256 255 261 256 243 242 245 250 230 222 214 195 171 165 161 157 160 168 176 167 171
335 307 248 239 254 258 271 252 210 153 114 102 91 83 73 55 47 32 309 282 263 253 255 257 253 259 241 236 239 230 224 229 198 175 167 165 158 176 194 200 190 183 179
314 300 262 245 253 265 272 265 251 231 195 148 125 108 98 81 68 70 66 59 61 36 330 262 252 238 220 205 179 168 153 149 153 150 158 169 168 161 189 200 201 195 180
301 290 252 223 237 248 256 254 240 229 219 198 179 160 139 102 91 88 78 74 81 88 87 93 102 110 116 119 122 123 129 144 159 167 153 151 166 195 194 193 194 192 184
295 285 250 213 221 234 241 239 238 233 224 222 224 220 215 204 174 162 144 106 97 114 119 119 120 123 130 146 161 153 146 149 158 151 157 176 194 200 195 187 190 188 183
273 283 245 231 224 227 238 244 246 246 246 248 252 254 252 248 247 254 256 255 248 237 220 211 204 209 212 194 191 182 185 174 175 173 176 189 198 199 199 204 198 196 188
235 249 240 240 235 230 242 259 263 260 253 251 267 271 266 258 257 253 254 247 215 185 185 217 240 206 186 180 180 177 174 175 181 194 201 201 194 183 201 201 205 198 192
209 228 223 222 231 233 239 247 255 260 269 277 276 262 250 246 249 242 232 228 212 182 190 209 207 201 184 189 202 198 211 201 198 195 200 199 204 207 193 185 188 194 199
192 184 172 170 192 210 222 224 241 257 261 271 266 251 252 250 247 246 235 219 198 190 199 217 221 224 219 221 225 217 216 205 203 205 218 207 192 193 198 204 211 215 215
195 192 192 209 221 217 205 193 179 190 203 291 347 312 267 249 230 212 183 174 194 227 246 240 235 240 237 244 225 220 217 219 208 211 202 195 200 203 206 218 226 226 231
205 206 211 220 231 257 271 257 239 240 250 254 266 321 307 229 190 185 187 200 220 227 228 236 222 220 217 230 217 210 196 183 182 186 196 197 200 208 218 232 242 256 263
219 222 231 242 256 278 271 252 245 247 254 256 251 239 252 233 209 204 209 226 239 252 243 233 214 205 197 194 183 182 190 197 205 218 226 223 222 225 237 250 255 255 254